Location: Coopersdale
(40.3556°N, 78.9372°W)
Time: 22:32:53
(UTC+00:00)

Explorer 11/Cluster Stage 4 - Pass Details

Date: 25 January 2021
Orbit: 467 x 1257 km, 28.8° (Epoch: 25 February)

Event Time Altitude Azimuth Distance (km) Brightness Sun altitude
Rises 01:21:29 0° 221° (SW) 3,165 10.2 -33.5°
Reaches altitude 10° 01:24:23 10° 204° (SSW) 2,388 9.2 -34.1°
Enters shadow 01:24:56 12° 199° (SSW) 2,273 9.1 -34.2°
